Find Explorer 29

NORAD ID: 1726 Int'l Des: 1965-089 Owner: GSFC Country: US operational
LEO

Live Position

Loading 3D Globe...

About Explorer 29

Description loading...

Upcoming Passes

Passes for default location (London). Set your location on the main map for personalized predictions.

Altitude History

Loading altitude history...

Two-Line Element Set

1 1726U 65089A 26106.54836235 -.00000047 00000-0 16836-3 0 9994
2 1726 59.3792 167.6048 0716305 180.4250 297.2207 11.97076045642288
Epoch: Apr 16, 2026 • Age: 11 hours

Current Status

Altitude 1264.6 km
Velocity 7.42 km/s
Sub-Earth Point -36.63°S, 171.29°E
Type other

Most Searched